Regional Weather Roundup
Issued by NWS

Home | Current Version | Previous Version | Graphics & Text | Print | Product List | Glossary On
Versions: 1 2 3 4 5 6 7 8 9 10 11 12 13 14 15 16 17 18 19 20 21 22 23 24 25 26 27 28 29 30 31 32 33 34 35 36 37 38 39 40 41 42 43 44 45 46 47 48 49 50
000
ASUS43 KLMK 010302
RWRKY
KENTUCKY REGIONAL WEATHER ROUNDUP
NATIONAL WEATHER SERVICE LOUISVILLE KY
1100 PM EDT FRI OCT 31 2014

NOTE "FAIR" INDICATES FEW OR NO CLOUDS BELOW 12,000 FEET
WITH NO SIGNIFICANT WEATHER AND/OR OBSTRUCTIONS TO VISIBILITY.

KYZ001>023-026-027-061>063-070>075-010400-
WESTERN AND SOUTH CENTRAL KENTUCKY

CITY           SKY/WX    TMP DP  RH WIND       PRES   REMARKS
PADUCAH        CLEAR     41  23  48 N22G35    30.28R
HENDERSON      MOCLDY    39  21  48 NW16G28   30.22S WCI  30
OWENSBORO      CLOUDY    41  27  57 N21G29    30.18R
HOPKINSVILLE   CLOUDY    41  24  49 NW15G33   30.19S
BOWLING GREEN  CLOUDY    42  26  53 NW14G24   30.12S
GLASGOW        NOT AVBL
$$

KYZ024-025-028>034-038-045-046-053-010400-
NORTH CENTRAL KENTUCKY

CITY           SKY/WX    TMP DP  RH WIND       PRES   REMARKS
LOUISVILLE/SDF LGT RAIN  38  34  85 NW18G26   30.07R WCI  28
LOUISVILLE/LOU LGT RAIN  37  34  89 NW18G25   30.07R WCI  27
FORT KNOX      LGT RAIN  36  33  90 NW18G26   30.07R WCI  26
$$

KYZ035>037-039>044-047>052-055>060-089>105-010400-
NORTHEAST KENTUCKY

CITY           SKY/WX    TMP DP  RH WIND       PRES   REMARKS
LEXINGTON      CLOUDY    38  34  85 NW9       29.99S WCI  31
COVINGTON      CLOUDY    37  33  85 N23G33    30.00R WCI  26
FRANKFORT      LGT SNOW  34  32  92 W6        30.00S FOG     WCI  29
$$

KYZ054-064>069-076>088-106>120-010400-
SOUTHEAST KENTUCKY

CITY           SKY/WX    TMP DP  RH WIND       PRES   REMARKS
JACKSON        LGT RAIN  36  34  92 VRB5      29.94S WCI  32
LONDON         CLOUDY    37  33  85 W8        29.98F WCI  31
SOMERSET       LGT RAIN  34  34 100 NW7       30.02F WCI  28
MIDDLESBORO    NOT AVBL
MONTICELLO     CLOUDY    37  34  89 NW12G17   30.04F FOG     WCI  29
$$




USA.gov is the U.S. government's official web portal to all federal, state and local government web resources and services.